Location: Capannuccia
(43.7000°N, 11.3000°E)
Time: 03:57:10
(UTC+00:00)

STARLINK-2673 - Visible Passes

Search period start: 06 December 2021 00:00
Search period end: 16 December 2021 00:00
Orbit: 545 x 549 km, 53.1° (Epoch: 05 December)

Date Brightness Start Highest point End Pass type
(mag) Time Alt. Az. Time Alt. Az. Time Alt. Az.
06 Dec 5.2 17:33:56 10° NW 17:37:10 22° N 17:37:10 22° N visible
07 Dec 5.1 17:27:45 10° NW 17:31:04 23° N 17:31:08 23° N visible
08 Dec 5.0 17:21:30 10° NW 17:24:54 24° N 17:25:07 24° NNE visible
09 Dec 4.8 17:15:13 10° NW 17:18:43 26° NNE 17:19:09 25° NNE visible
09 Dec 6.7 18:54:37 10° NW 18:54:45 11° NW 18:54:45 11° NW visible
10 Dec 4.7 17:08:54 10° NW 17:12:31 28° NNE 17:13:15 27° NE visible
10 Dec 6.5 18:48:17 10° NW 18:48:51 14° NW 18:48:51 14° NW visible
11 Dec 4.5 17:02:34 10° NW 17:06:18 32° NNE 17:07:25 27° NE visible
11 Dec 6.2 18:41:58 10° WNW 18:43:02 17° WNW 18:43:02 17° WNW visible
12 Dec 4.3 16:56:12 10° NW 17:00:03 36° NNE 17:01:42 26° ENE visible
12 Dec 5.9 18:35:41 10° WNW 18:37:20 22° WNW 18:37:20 22° WNW visible
13 Dec 4.0 16:49:49 10° NW 16:53:47 43° NNE 16:56:09 21° E visible
13 Dec 5.6 18:29:26 10° WNW 18:31:47 28° W 18:31:47 28° W visible
14 Dec 3.8 16:43:26 10° NW 16:47:29 52° NNE 16:50:48 15° ESE visible
14 Dec 5.4 18:23:13 10° WNW 18:26:27 29° WSW 18:26:27 29° WSW visible
15 Dec 3.6 16:37:03 10° NW 16:41:09 65° NNE 16:45:15 10° ESE visible
15 Dec 5.7 18:17:07 10° W 18:20:22 23° SW 18:21:26 20° SSW visible
